Flag for Romania Weather past 2 weeks in Iasi, Romania

Now
82 °F

Sunny.


Feels Like: 84 °F
Forecast: 64 / 86 °F
Wind: 9 mph from Northeast

Location: Iasi Airport

Current Time: Jul 26, 2014 at 7:13:20 PM

Latest Report: Jul 26, 2014 at 6:30 PM


Visibility: 10 mi

Pressure: 29.95 "Hg

Humidity: 55%

Dew point: 64 °F

Location of IasiLocation

Historic Weather in Iasi — Graph

°F

Iasi temperature yesterday

Maximum temperature yesterday: 82 °F (at 5:00 PM)
Minimum temperature yesterday: 63 °F (at 3:00 AM)
Average temperature yesterday: 73 °F

Past Weeks' High & Low Weather Summary

 TemperatureHumidityPressure
High88 °F (Jul 21, 2:30 PM)100% (Jul 11, 8:00 PM)30.04 "Hg (Jul 11, 8:00 PM)
Low55 °F (Jul 14, 6:00 AM)35% (Jul 14, 2:00 PM)29.56 "Hg (Jul 11, 6:30 PM)
Average72 °F77%29.90 "Hg
* Reported Jul 11 6:00 PM — Jul 26 6:00 PM, Iasi, Weather by CustomWeather, © 2014

Note: Actual official high and low records may vary slightly from our data, if they occured in-between our weather recording intervals... More about our weather records

Advertising

Iasi weather history for previous 24 hours

 ConditionsComfort  
Time TempWeatherWind HumidityBarometerVisibility
6:00 PM
Jul 26
84 °FSunny.12 mph58%29.95 "Hg10 mi
5:30 PM86 °FPassing clouds.7 mph55%29.95 "HgN/A
5:00 PM86 °FPassing clouds.7 mph55%29.95 "HgN/A
4:30 PM88 °FPassing clouds.5 mph49%29.95 "HgN/A
4:00 PM86 °FPassing clouds.5 mph52%29.98 "HgN/A
3:30 PM84 °FPassing clouds.7 mph48%29.98 "HgN/A
3:00 PM84 °FPassing clouds.5 mph58%29.98 "HgN/A
2:30 PM82 °FPassing clouds.5 mph58%29.98 "HgN/A
2:00 PM82 °FPassing clouds.7 mph58%29.98 "HgN/A
1:30 PM81 °FPassing clouds.9 mph58%29.98 "HgN/A
1:00 PM81 °FPassing clouds.7 mph54%30.01 "HgN/A
12:30 PM81 °FPassing clouds.5 mph62%30.01 "HgN/A
12:00 PM79 °FPassing clouds.5 mph65%30.01 "HgN/A
11:30 AM79 °FPassing clouds.5 mph61%30.01 "HgN/A
11:00 AM77 °FPassing clouds.5 mph61%30.01 "HgN/A
10:30 AM75 °FPassing clouds.5 mph65%30.01 "HgN/A
10:00 AM75 °FPassing clouds.5 mph69%30.01 "HgN/A
9:30 AM72 °FPassing clouds.5 mph73%30.01 "HgN/A
9:00 AM72 °FPassing clouds.5 mph73%30.01 "HgN/A
8:30 AM70 °FPassing clouds.5 mph78%30.01 "HgN/A
8:00 AM66 °FPassing clouds.5 mph88%30.01 "HgN/A
7:30 AM66 °FSunny.2 mph88%30.01 "Hg10 mi
7:00 AM64 °FSunny.5 mph94%29.98 "Hg10 mi
6:30 AM63 °FClear.5 mph100%29.98 "Hg10 mi
6:00 AM61 °FPassing clouds.5 mph100%29.98 "HgN/A
5:30 AM63 °FPassing clouds.5 mph100%29.98 "HgN/A
5:00 AM63 °FClear.5 mph100%29.98 "Hg10 mi
4:00 AM63 °FClear.5 mph100%29.98 "Hg10 mi
3:00 AM63 °FClear.5 mph100%29.98 "Hg10 mi
2:00 AM64 °FClear.5 mph94%29.98 "Hg10 mi
1:00 AM64 °FClear.5 mph94%29.98 "Hg10 mi
12:00 AM68 °FClear.5 mph78%29.98 "Hg10 mi
11:00 PM
Jul 25
70 °FClear.5 mph78%29.98 "Hg10 mi
10:00 PM73 °FPassing clouds.7 mph78%29.95 "HgN/A
9:00 PM73 °FSunny.5 mph83%29.95 "Hg10 mi
8:30 PM75 °FSunny.7 mph78%29.95 "Hg10 mi
8:00 PM77 °FSunny.5 mph74%29.95 "Hg10 mi
7:30 PM81 °FPassing clouds.7 mph62%29.92 "HgN/A
7:00 PM81 °FPassing clouds.5 mph62%29.92 "HgN/A
Weather by CustomWeather, © 2014

See weather overviewHow to use our weather pages